RH
100 100 100 100 100 100 100 100 100 99 100 93 83 69 51 39 49 53 39 35 23 20 23 25 25 18 11 11 12 12 14 14 14 13 11 10 9 10 9 9 10 9 9 9 9 9 10 10 8 8 8 7 9 14
98 94 100 99 100 100 100 100 99 97 84 76 59 49 43 49 57 65 34 35 28 20 20 26 27 24 17 16 15 14 14 15 14 12 12 12 10 10 11 11 11 10 10 9 9 8 9 7 6 7 7 9 13 16
100 100 100 100 100 100 100 100 90 76 68 54 48 50 54 64 56 58 36 38 31 19 20 25 27 26 21 18 17 14 13 14 14 14 14 12 10 11 11 11 11 10 10 9 8 9 8 7 8 11 16 20 25 29
98 100 99 95 87 79 69 62 60 56 61 75 72 63 70 66 70 93 39 32 74 57 27 23 28 27 25 22 19 17 17 16 16 15 14 12 10 10 10 10 9 8 8 7 7 10 12 19 22 26 32 39 41 42
100 100 100 100 99 90 87 84 84 82 74 91 83 83 85 83 84 39 26 62 100 98 69 35 26 27 27 24 22 20 19 18 17 16 14 12 11 10 9 8 8 9 8 8 13 20 25 35 42 43 41 41 46 49
100 100 73 53 61 80 93 81 85 87 99 98 100 97 69 71 27 76 98 76 95 96 90 69 29 27 25 24 24 22 21 19 17 15 13 11 10 9 7 8 9 15 19 22 29 38 40 37 37 41 45 50 50 45
50 53 74 94 94 88 74 84 95 98 99 96 56 38 33 25 35 67 90 100 100 100 56 34 29 24 22 21 21 21 20 19 17 14 12 10 10 9 8 9 19 33 41 38 37 36 36 39 37 38 38 36 46 81
100 100 94 91 100 100 100 97 100 100 100 92 57 54 56 51 94 100 100 100 90 69 63 43 29 27 26 27 27 27 24 20 16 12 11 11 11 14 16 35 45 45 47 39 34 27 28 35 43 46 48 62 80 78
86 91 98 100 100 100 100 100 99 97 100 99 99 91 97 100 100 100 100 100 100 100 100 96 88 72 51 42 33 26 20 16 13 13 19 22 27 35 41 39 41 41 36 30 29 42 66 69 66 70 77 79 82 82
100 100 100 97 95 100 100 100 100 99 97 97 89 82 88 100 99 93 84 74 68 55 50 35 29 24 25 27 29 24 25 26 23 34 43 42 37 42 48 44 38 38 37 36 40 55 75 84 86 87 85 83 82 80
100 100 100 100 100 98 93 100 94 100 93 100 92 97 98 88 92 82 73 56 46 39 40 46 51 54 66 61 72 69 60 60 51 46 49 47 49 55 58 54 46 40 44 61 81 90 92 91 88 86 84 84 85 82
99 99 100 100 100 100 99 94 88 93 96 100 100 100 98 88 76 72 68 74 77 81 92 97 94 97 99 99 87 69 63 60 54 57 51 44 55 61 72 81 87 85 85 86 84 82 84 86 89 89 86 79 74 69
92 93 91 100 95 99 100 100 95 100 100 98 94 92 97 100 100 100 100 100 100 100 100 96 90 86 83 81 80 64 50 43 47 52 56 54 65 80 82 78 82 85 84 86 89 90 88 82 76 72 70 61 35 48
100 100 100 97 99 95 98 100 100 100 100 100 100 100 99 97 90 92 96 96 92 87 85 88 86 84 84 80 74 73 71 70 64 59 64 88 90 90 85 89 94 92 90 87 84 81 76 59 29 10 8 20 42 71
96 97 95 90 97 99 100 100 100 100 100 100 97 98 98 97 82 58 52 51 55 72 91 99 95 88 89 88 87 84 82 78 76 84 92 95 95 97 96 93 91 91 89 76 48 18 6 7 8 8 14 15 14 18
95 96 99 100 100 100 99 100 100 100 99 100 99 96 88 77 78 84 87 94 99 99 98 98 96 97 100 100 100 100 100 98 99 100 100 98 98 97 92 82 60 32 10 6 6 7 7 8 8 8 9 12 20 34
100 100 100 100 100 100 100 100 99 100 100 100 100 98 95 94 96 100 100 100 100 100 100 100 100 100 100 100 100 100 100 100 100 99 97 90 73 46 23 10 6 6 7 8 8 8 8 9 9 10 14 24 40 59
100 100 100 100 100 100 100 100 100 100 100 100 100 100 100 100 100 100 100 100 100 100 100 100 100 100 100 100 98 97 94 84 69 48 27 15 9 6 6 7 7 8 8 9 9 9 10 10 12 16 29 48 72 77
100 100 100 100 100 100 100 99 99 100 100 100 100 100 100 100 100 100 100 100 100 100 100 100 97 88 77 64 48 28 14 8 7 6 7 8 8 8 8 9 10 10 10 10 11 12 12 19 34 52 75 90 88 72
93 97 98 100 100 100 100 100 99 100 100 99 100 100 100 100 100 100 96 84 64 47 29 19 15 12 9 8 7 7 8 8 9 9 10 11 11 11 11 11 11 11 11 13 14 22 43 63 77 95 94 76 56 50
54 57 43 36 37 43 65 90 87 83 71 55 42 38 36 30 27 16 9 9 7 7 7 8 8 8 9 9 10 10 10 11 11 12 12 12 12 12 12 13 14 16 18 19 31 80 97 97 99 99 85 68 64 63
24 33 20 19 22 17 15 14 13 13 13 14 13 12 11 10 10 10 10 11 11 11 11 11 11 11 11 11 11 11 11 11 11 12 12 12 14 15 17 19 21 24 33 71 99 100 100 100 100 90 80 77 74 70
15 15 16 16 16 16 16 16 15 14 14 13 13 13 13 13 12 12 12 12 12 12 12 12 12 12 12 13 13 13 13 14 14 15 16 18 21 24 29 40 59 87 100 100 100 100 100 98 91 86 82 74 59 37
15 14 14 13 13 14 14 14 13 13 12 12 11 11 10 10 10 11 11 11 11 10 10 10 10 10 10 10 11 12 15 18 22 26 42 53 74 96 100 100 100 100 100 100 100 100 97 91 87 78 61 40 23 20
22 16 15 16 16 17 17 17 16 16 15 15 14 14 13 12 12 11 10 10 10 9 9 9 10 11 14 16 22 30 52 82 98 100 100 100 100 100 100 100 100 100 100 100 95 90 87 77 54 34 23 23 24 24
23 20 17 16 17 16 16 15 14 14 13 13 13 13 15 16 18 23 25 28 33 40 44 36 42 90 100 100 100 100 100 100 100 100 100 100 100 100 100 100 100 100 98 90 79 59 37 28 27 29 30 26 26 28
20 18 18 18 19 20 22 30 32 30 27 31 34 35 35 34 36 38 37 38 44 51 60 69 78 84 95 100 100 100 100 100 100 99 97 100 100 100 96 94 90 71 53 38 30 31 36 38 35 28 27 29 28 21
18 20 20 22 25 30 29 29 30 34 36 46 50 55 59 62 66 62 57 57 58 62 67 72 81 87 91 89 90 93 94 100 100 98 88 76 62 49 39 36 37 39 41 45 48 44 34 27 26 28 28 24 21 22
28 31 37 38 41 43 43 41 39 38 37 36 36 36 38 37 43 48 54 56 57 59 58 56 48 46 41 36 37 38 39 40 40 41 43 46 47 48 48 48 49 48 44 37 30 28 28 30 32 27 23 22 24 30
47 50 52 48 43 38 33 31 29 29 28 27 27 27 28 32 36 42 46 47 48 49 46 43 41 42 45 46 47 47 46 48 56 63 64 60 54 46 42 39 38 36 35 34 34 35 35 33 28 24 24 27 34 39
40 34 30 28 29 32 40 43 45 42 34 29 26 24 23 26 30 35 39 42 43 46 48 50 51 51 49 49 49 47 48 54 66 68 65 53 44 41 40 41 41 40 38 38 37 34 27 22 23 26 31 37 41 41
31 33 34 36 38 36 33 31 30 27 25 24 25 37 55 59 50 39 38 44 51 55 56 54 53 54 54 51 48 54 67 72 72 64 55 50 49 49 48 48 45 42 41 39 30 21 22 25 27 33 41 45 44 36
32 31 30 30 32 32 28 25 24 26 31 33 54 64 64 61 61 58 57 56 55 54 56 57 54 51 55 67 72 68 54 38 29 26 26 27 28 31 33 33 32 28 24 22 25 26 27 27 28 30 37 42 40 33
Wind_Speed
65 60 63 53 58 67 72 69 69 64 57 55 55 54 52 49 45 46 48 48 54 56 57 56 51 49 45 41 36 31 29 24 21 19 17 16 15 15 15 16 17 20 23 25 27 31 35 35 39 42 44 45 45 46
63 66 66 70 69 66 62 58 58 56 54 53 51 50 46 43 41 41 44 46 48 54 56 54 50 47 44 41 37 34 31 28 26 23 20 20 20 20 21 23 25 26 29 31 32 33 39 43 45 46 45 44 43 43
60 57 59 60 65 61 57 56 54 51 49 47 45 42 41 40 39 39 40 40 43 51 54 51 48 46 43 40 38 35 33 29 27 26 26 25 26 26 27 29 30 31 34 35 37 38 43 45 44 43 42 42 41 42
63 65 63 60 58 56 54 52 50 48 46 43 43 41 39 39 38 40 35 38 33 38 48 47 46 43 42 40 37 34 31 31 30 30 29 30 30 31 32 33 34 35 38 40 41 40 41 39 40 41 41 43 43 44
58 57 55 51 49 46 43 43 41 38 35 36 41 40 37 35 34 33 36 42 30 33 38 44 45 43 40 38 37 35 33 33 33 32 32 33 35 36 37 38 37 39 41 42 40 39 39 39 40 42 42 43 42 43
50 49 45 42 41 41 41 32 30 37 38 41 41 37 34 32 31 37 35 42 32 30 37 38 44 42 40 38 37 36 36 35 35 36 37 37 38 39 42 41 40 36 37 38 38 39 41 42 42 42 42 43 44 45
39 39 38 35 37 37 34 30 31 32 35 38 33 32 34 34 36 42 40 35 32 33 35 38 39 39 39 40 39 38 38 38 38 39 39 39 39 41 42 42 37 33 34 37 39 40 42 43 44 44 44 45 44 43
35 33 34 33 40 34 31 29 30 29 33 33 31 30 33 35 39 30 44 39 34 30 29 32 35 37 38 36 36 36 37 38 39 39 39 37 39 39 40 36 34 34 35 37 38 40 43 44 44 45 45 44 45 48
25 30 36 33 30 34 30 23 27 28 36 36 36 35 36 35 32 29 36 37 34 31 31 30 30 28 32 33 35 35 36 36 37 37 36 36 37 38 36 34 36 38 38 39 41 41 42 42 43 44 45 48 51 53
33 36 29 32 28 29 28 28 30 28 27 31 30 32 34 30 29 27 28 29 29 28 27 26 28 29 30 29 31 32 33 34 35 34 35 36 35 34 36 37 38 39 41 42 42 43 43 44 45 47 50 52 55 57
31 29 29 27 33 26 27 28 20 27 29 27 27 30 29 30 29 28 28 29 30 29 26 24 25 24 24 25 27 30 32 33 36 35 35 35 35 35 38 38 38 39 41 43 43 43 44 46 49 52 55 58 60 60
22 25 29 26 27 31 28 23 24 22 21 20 25 24 24 24 25 26 26 25 23 21 18 17 19 22 25 26 29 30 32 34 37 35 35 39 35 34 35 36 37 37 38 40 43 46 50 53 56 58 59 60 61 65
26 25 24 30 28 25 28 26 23 24 21 20 21 20 23 26 25 23 21 19 18 18 21 23 26 27 27 29 31 31 33 35 35 40 41 34 32 35 37 38 39 41 44 46 49 53 55 57 59 61 61 61 59 54
17 18 21 28 32 31 28 33 32 31 27 26 26 29 30 31 27 22 21 22 23 25 26 28 29 31 31 33 35 36 37 37 37 35 35 35 37 38 40 42 44 48 52 54 56 58 59 57 53 50 49 52 55 55
15 13 14 15 19 36 34 29 30 33 33 32 32 32 30 26 25 26 28 29 29 31 33 32 29 27 26 28 29 32 35 37 37 37 38 39 41 44 47 49 51 52 53 55 54 51 47 46 48 50 53 56 58 60
17 16 15 13 13 19 35 33 29 25 24 25 30 31 28 28 28 27 28 28 29 26 24 25 27 29 31 32 34 34 35 36 37 40 43 45 47 49 50 51 52 50 46 43 42 45 47 49 52 54 57 58 58 57
20 19 19 20 16 18 20 23 27 28 28 30 29 29 26 25 25 25 25 26 27 28 28 30 31 32 34 36 36 36 37 39 42 44 47 48 49 49 48 46 41 39 41 44 47 49 51 54 56 57 57 56 55 54
25 26 26 26 28 26 26 25 24 25 26 29 29 28 30 32 31 31 31 31 32 33 33 34 35 37 38 38 39 40 42 43 44 44 44 43 41 38 37 39 42 44 46 49 52 54 55 56 57 56 55 53 52 53
33 33 34 33 33 32 30 29 29 29 30 33 34 35 36 37 38 38 38 38 38 38 39 39 40 40 41 43 43 42 41 38 36 35 35 36 38 40 42 45 47 49 51 53 54 55 56 55 54 52 51 51 53 55
7 10 16 19 27 30 31 32 34 34 34 35 37 38 39 39 38 38 38 38 38 37 35 35 34 34 32 32 32 32 33 34 36 38 40 42 44 46 48 50 51 53 54 54 54 53 52 51 50 51 52 54 56 59
3 5 6 6 7 8 12 13 15 18 19 21 21 23 24 26 27 27 27 27 27 26 27 29 29 30 32 33 35 37 39 41 43 44 46 48 49 51 52 53 53 52 52 51 49 48 49 50 52 53 56 59 62 64
7 8 8 9 10 10 11 12 13 15 16 17 19 19 21 23 24 25 26 27 29 30 32 33 35 36 38 40 41 43 46 48 50 51 52 53 53 53 52 51 51 49 47 46 47 49 50 52 54 57 59 62 66 69
11 12 14 15 16 16 17 18 19 20 22 22 24 24 26 27 29 30 33 34 36 38 39 41 43 45 47 48 51 52 53 54 55 55 54 52 50 48 47 46 45 45 46 47 49 50 52 55 57 60 64 67 70 74
16 18 20 22 23 24 24 26 26 28 29 31 32 33 35 36 37 38 40 42 44 45 47 48 50 52 54 55 56 55 53 52 49 46 42 40 39 39 40 42 43 45 46 49 51 54 56 60 62 64 67 71 74 75
26 24 26 28 29 30 31 32 33 34 35 36 37 39 41 43 45 47 48 49 50 51 52 52 53 53 50 48 44 37 34 32 32 33 35 38 40 41 42 44 45 48 51 54 57 60 62 63 65 68 71 71 71 66
33 34 31 30 31 31 31 32 32 32 33 32 32 30 29 28 28 24 22 22 20 19 21 22 23 20 23 24 25 28 30 33 35 37 38 40 41 44 47 50 54 56 58 59 60 61 63 66 67 68 68 65 61 59
36 34 28 26 20 18 14 11 10 11 10 11 12 11 12 13 14 15 15 15 15 16 17 17 18 18 18 21 24 26 29 32 37 40 44 47 49 52 55 56 57 58 59 60 61 62 64 65 65 62 60 57 56 53
15 11 9 10 9 10 11 11 13 15 16 17 18 19 20 21 22 21 22 22 22 23 23 23 23 24 27 31 34 37 40 42 43 45 47 49 51 53 55 56 57 59 60 61 62 62 61 58 57 55 54 53 50 46
9 11 11 14 16 17 19 20 22 23 24 25 25 26 26 26 26 26 26 25 26 26 27 28 29 31 32 34 36 37 39 41 44 46 48 51 53 55 57 58 59 59 59 59 57 56 55 53 53 53 51 47 44 41
17 19 21 22 24 26 27 28 29 31 31 32 33 34 34 34 34 33 32 32 32 32 32 32 32 32 32 33 36 40 43 46 48 50 52 54 55 56 57 57 57 56 56 55 53 53 52 52 51 49 45 42 39 37
23 25 27 30 32 32 31 29 27 27 28 29 31 32 33 32 32 32 32 33 32 32 31 31 33 35 37 41 45 49 50 51 52 54 55 55 55 55 55 54 54 53 52 52 52 52 51 49 46 42 39 37 35 35
30 31 30 29 27 26 26 27 29 30 30 30 29 28 27 26 26 27 28 28 29 31 33 36 40 43 48 51 54 54 55 56 56 56 56 55 54 54 54 53 52 52 52 51 51 48 45 41 39 37 36 34 34 34
24 26 28 29 30 31 32 32 32 31 29 26 22 20 19 20 21 23 25 29 33 37 41 45 49 53 54 56 56 57 56 56 55 55 54 54 54 54 54 53 52 51 48 45 42 40 39 38 37 36 35 35 34 34
Wind_Direction
127 127 138 138 141 147 147 149 161 161 155 158 164 170 175 180 183 190 194 197 198 196 196 198 197 201 199 201 205 209 219 225 235 244 251 257 265 270 272 276 280 283 284 285 287 291 290 290 288 287 290 289 290 291
129 133 139 133 135 139 150 145 144 150 154 161 166 170 173 177 182 192 193 197 198 199 199 200 200 204 205 206 210 213 220 226 234 244 256 263 267 272 278 279 281 282 284 287 289 288 286 288 289 292 292 292 293 293
116 120 126 133 137 137 139 143 147 150 156 160 163 168 173 178 183 189 190 196 198 198 202 201 203 207 208 211 215 218 223 230 239 247 257 262 269 273 276 277 279 283 285 286 287 285 287 289 292 292 292 292 293 293
130 131 129 130 133 137 140 143 147 152 159 163 166 170 174 178 185 185 193 187 187 198 204 203 205 209 212 216 220 223 227 234 241 249 256 263 269 273 275 279 281 284 284 287 289 288 288 287 286 287 290 293 293 294
123 125 129 132 135 137 141 146 150 159 167 172 172 173 175 180 182 186 184 177 180 194 200 206 209 212 216 220 225 229 232 239 246 251 258 264 269 273 276 280 282 284 287 287 286 284 284 286 287 289 289 291 293 295
130 132 135 134 138 147 153 148 153 165 168 170 172 171 176 177 176 168 167 183 191 197 193 200 210 215 220 226 231 235 239 243 249 254 258 264 269 273 276 280 282 282 284 285 286 287 288 289 290 291 292 293 294 296
127 133 132 132 140 143 144 150 158 159 164 162 161 170 173 173 172 178 179 188 198 200 198 203 209 215 222 228 233 238 242 246 250 254 260 265 269 273 278 280 283 283 281 281 283 286 287 288 290 292 293 294 296 297
125 134 136 136 146 148 145 145 145 147 154 155 158 159 163 168 168 165 185 195 202 202 206 210 215 219 224 230 236 241 245 250 254 260 264 267 270 273 274 278 281 282 283 284 285 286 288 290 292 292 292 292 294 298
142 142 144 142 147 152 157 146 145 145 151 152 154 159 170 174 179 183 183 190 192 197 204 211 216 221 228 232 239 244 249 252 256 259 262 266 269 272 278 281 284 284 285 285 286 287 289 290 293 294 296 297 298 299
145 146 149 155 154 154 157 160 155 161 154 157 159 167 173 183 187 193 199 205 210 214 215 217 223 227 233 238 242 245 250 253 256 258 262 265 270 278 282 284 284 285 285 286 287 288 290 292 293 294 295 296 297 297
157 145 156 152 164 156 163 158 155 166 169 167 174 172 179 182 190 199 206 214 219 221 220 219 222 226 231 237 242 246 249 253 256 259 265 271 275 281 283 282 281 280 281 283 286 288 290 291 292 293 294 295 296 298
158 160 162 157 164 177 181 172 172 177 186 184 188 191 190 191 197 204 209 213 216 219 221 226 230 235 237 242 247 251 258 261 264 270 273 276 282 283 281 279 278 280 282 284 287 290 292 294 295 296 297 297 298 301
179 181 175 175 172 173 184 192 207 191 184 185 189 195 202 212 215 221 223 226 235 237 239 243 245 249 254 256 260 263 264 267 272 274 278 283 283 278 278 280 284 286 288 290 291 291 291 293 296 299 302 303 307 309
140 156 180 193 191 187 189 194 200 205 207 206 209 209 214 218 227 235 238 240 248 253 253 252 254 254 256 256 259 263 268 270 271 274 281 280 277 277 280 284 287 289 290 292 294 296 299 300 300 303 307 309 309 307
169 163 168 171 191 200 195 195 201 208 204 206 215 217 221 233 244 248 251 253 252 254 257 254 252 252 253 257 258 261 266 269 273 276 275 275 278 282 285 287 289 291 293 295 296 298 302 306 308 309 308 306 305 304
191 183 181 191 200 198 207 209 211 219 236 231 231 232 237 241 246 249 248 246 250 252 250 249 251 253 256 259 263 265 267 270 274 275 277 280 282 284 286 288 290 292 294 296 299 301 304 305 306 305 305 304 305 305
218 210 206 197 205 203 199 214 221 225 228 237 239 237 235 239 246 243 242 242 244 248 254 256 259 264 266 266 268 271 272 273 275 277 280 282 283 284 286 288 291 292 294 297 299 301 302 302 301 301 302 303 302 301
230 229 229 228 230 226 223 227 223 223 224 222 227 234 238 243 249 253 256 258 261 263 264 265 267 268 271 274 276 277 277 278 278 278 278 278 279 282 285 288 289 292 293 296 297 298 298 299 300 301 301 301 299 299
233 232 232 237 239 240 243 246 240 239 237 238 240 242 245 249 252 253 256 259 261 264 266 269 271 273 273 274 275 276 275 274 274 275 277 280 282 285 286 288 290 291 293 294 296 297 298 299 299 299 298 298 298 300
238 237 238 240 244 243 244 244 246 246 245 244 244 248 251 254 257 259 262 264 266 267 267 267 268 269 268 267 268 269 272 274 276 279 281 284 285 286 288 289 290 291 293 294 295 296 296 297 298 297 297 299 301 303
224 225 222 226 231 234 240 247 249 246 246 248 249 250 252 254 257 259 261 263 264 266 266 266 267 268 269 271 273 275 277 279 281 283 285 285 286 287 288 288 290 291 292 294 293 292 294 296 297 298 299 301 303 305
222 234 237 238 238 240 239 245 243 244 246 247 251 254 256 259 262 263 265 267 269 271 272 273 275 276 277 278 280 281 282 283 283 284 284 285 285 286 288 290 291 292 292 292 293 295 296 297 299 301 302 303 304 306
260 260 263 263 263 262 260 260 263 264 265 265 265 267 268 270 271 272 274 275 275 276 277 277 278 278 279 279 280 280 280 281 281 282 284 285 286 287 288 289 291 291 293 294 295 296 298 300 301 303 303 304 306 307
302 286 277 272 269 268 267 267 267 267 268 269 270 270 271 273 274 275 275 276 276 276 276 276 276 277 277 276 276 277 278 281 283 284 285 287 288 289 289 290 291 292 293 295 296 298 299 300 301 302 304 306 308 310
297 292 288 281 276 274 272 273 273 273 274 275 276 277 278 278 279 278 278 277 278 277 276 276 275 275 275 276 278 278 278 279 280 280 280 281 282 286 289 290 291 294 296 298 299 299 299 300 302 304 306 309 310 311
295 293 295 292 288 287 284 283 281 282 284 284 285 285 286 287 289 293 291 290 288 293 296 287 277 269 274 265 265 271 272 272 275 279 282 283 284 286 289 292 293 294 295 296 297 298 301 303 305 306 307 308 308 308
300 299 299 294 289 284 279 292 296 296 299 295 294 298 300 302 304 301 304 300 302 302 306 306 283 277 284 281 282 283 282 282 283 283 284 287 289 291 292 292 293 294 295 297 299 301 302 303 304 304 305 306 307 308
295 284 276 282 292 293 293 293 297 301 300 300 300 296 296 296 295 293 290 289 289 289 289 290 291 291 285 282 282 284 285 286 287 287 288 289 290 291 292 294 295 296 297 298 299 300 300 301 302 304 305 305 305 305
276 283 287 292 297 300 301 302 299 297 295 293 292 291 291 291 291 290 289 289 289 288 288 289 288 288 288 287 288 289 291 292 294 295 295 295 295 295 295 295 295 296 296 297 298 299 301 302 303 304 304 304 304 303
284 290 295 297 298 298 297 296 295 295 293 290 289 287 287 286 285 285 285 286 287 290 291 291 292 291 291 292 294 297 298 298 298 298 298 297 296 295 295 296 297 297 298 299 300 301 302 302 303 302 302 302 301 302
294 295 295 296 297 297 297 295 292 290 288 289 290 289 287 285 283 282 283 285 287 287 285 285 286 289 291 294 297 299 299 298 298 299 299 298 297 296 296 297 297 298 298 299 300 301 301 302 302 303 303 303 303 304
293 295 297 297 297 295 294 294 295 295 295 295 294 292 289 284 279 278 281 283 284 285 286 288 290 292 294 296 299 299 300 299 299 298 297 296 295 295 296 296 296 297 297 298 300 300 301 302 302 302 302 302 302 303
299 299 300 299 297 297 297 298 298 297 295 292 289 291 289 286 285 285 285 286 287 288 290 291 293 296 298 299 300 300 299 299 298 298 297 297 297 296 296 296 297 298 298 299 299 300 301 302 301 300 299 299 300 301